Weather History for Charlotte, NC

Change the Weather History Date:

Saturday, September 28, 2013

  Actual Average Record
Temperature  
Mean Temperature 63 °F 66 °F  
Max Temperature 74 °F 77 °F 93 °F (1954)
Min Temperature 52 °F 56 °F 41 °F (1947)
Degree Days  
Heating Degree Days 2 2  
Month to date heating degree days 2 17  
Since 1 July heating degree days 3 17  
Cooling Degree Days 0 4  
Month to date cooling degree days 228 193  
Year to date cooling degree days 1516 1470  
Growing Degree Days 12 (Base 50)    
Moisture  
Dew Point 52 °F    
Average Humidity 70    
Maximum Humidity 93    
Minimum Humidity 46    
Precipitation  
Precipitation 0.00 in 0.12 in 3.38 in (1992)
Month to date precipitation 3.06 3.01  
Year to date precipitation 38.38 31.61  
Snow  
Snow 0.00 in 0.00 in 0.00 in ()
Month to date snowfall 0.0 0.0  
Since 1 July snowfall 0.0 0.0  
Since 1 September snowfall 0.0 0.0  
Snow Depth 0.00 in    
Sea Level Pressure  
Sea Level Pressure 30.21 in    
Wind  
Wind Speed 8 mph (NE)    
Max Wind Speed 16 mph    
Max Gust Speed 25 mph    
Visibility 10 miles    
Events      
T = Trace of Precipitation, MM = Missing Value Source: NWS Daily Summary

Daily Weather History Graph

Daily Weather History Graph

Search for Another Location

Airport:

Trip Planner

Search our weather history database for the weather conditions in past years. The results will help you decide how hot, cold, wet, or windy it might be!

Date:

Astronomy

Sep. 28, 2013 Rise Set
Actual Time 7:16 AM EDT 7:11 PM EDT
Civil Twilight 6:51 AM EDT 7:36 PM EDT
Nautical Twilight 6:21 AM EDT 8:06 PM EDT
Astronomical Twilight 5:52 AM EDT 8:35 PM EDT
Moon 1:13 AM EDT (9/28) 3:19 PM EDT (9/28)
Length of Visible Light 12h 45m
Length of Day
11h 55m
Last Quarter, 36% of the Moon is Illuminated
Sep 28
Last Quarter
Oct 4
New
Oct 11
First Quarter
Oct 18
Full
Oct 26
Last Quarter

Hourly Weather History & Observations

Time (EDT) Temp. Dew Point Humidity Pressure Visibility Wind Dir Wind Speed Gust Speed Precip Events Conditions
12:52 AM 62.1 °F 54.0 °F 75% 30.19 in 10.0 mi NE 4.6 mph - N/A   Clear
1:52 AM 59.0 °F 54.0 °F 83% 30.19 in 10.0 mi NE 4.6 mph - N/A   Clear
2:52 AM 59.0 °F 54.0 °F 83% 30.18 in 10.0 mi ENE 6.9 mph - N/A   Clear
3:52 AM 55.0 °F 52.0 °F 89% 30.18 in 10.0 mi NNE 3.5 mph - N/A   Clear
4:52 AM 55.9 °F 53.1 °F 90% 30.19 in 10.0 mi NNE 3.5 mph - N/A   Clear
5:52 AM 54.0 °F 52.0 °F 93% 30.19 in 10.0 mi North 4.6 mph - N/A   Clear
6:52 AM 53.1 °F 51.1 °F 93% 30.22 in 10.0 mi North 5.8 mph - N/A   Partly Cloudy
7:52 AM 55.0 °F 53.1 °F 93% 30.23 in 10.0 mi North 6.9 mph - N/A   Partly Cloudy
8:52 AM 61.0 °F 55.0 °F 81% 30.25 in 10.0 mi NNE 5.8 mph - N/A   Partly Cloudy
9:52 AM 64.9 °F 53.1 °F 65% 30.26 in 10.0 mi NE 8.1 mph - N/A   Partly Cloudy
10:52 AM 69.1 °F 51.1 °F 53% 30.26 in 10.0 mi ENE 9.2 mph - N/A   Partly Cloudy
11:52 AM 70.0 °F 51.1 °F 51% 30.25 in 10.0 mi East 13.8 mph - N/A   Scattered Clouds
12:52 PM 73.0 °F 52.0 °F 48% 30.24 in 10.0 mi NE 11.5 mph 18.4 mph N/A   Mostly Cloudy
1:52 PM 70.0 °F 51.1 °F 51% 30.22 in 10.0 mi NNE 11.5 mph - N/A   Mostly Cloudy
2:52 PM 71.1 °F 50.0 °F 47% 30.19 in 10.0 mi NNE 12.7 mph 18.4 mph N/A   Mostly Cloudy
3:52 PM 73.0 °F 51.1 °F 46% 30.18 in 10.0 mi Variable 5.8 mph - N/A   Scattered Clouds
4:52 PM 72.0 °F 50.0 °F 46% 30.17 in 10.0 mi North 9.2 mph - N/A   Scattered Clouds
5:52 PM 71.1 °F 51.1 °F 49% 30.18 in 10.0 mi NE 11.5 mph - N/A   Scattered Clouds
6:52 PM 68.0 °F 50.0 °F 52% 30.17 in 10.0 mi ENE 9.2 mph 21.9 mph N/A   Scattered Clouds
7:52 PM 64.9 °F 50.0 °F 58% 30.19 in 10.0 mi ENE 6.9 mph - N/A   Partly Cloudy
8:52 PM 63.0 °F 51.1 °F 65% 30.19 in 10.0 mi ENE 6.9 mph - N/A   Partly Cloudy
9:52 PM 61.0 °F 51.1 °F 70% 30.19 in 10.0 mi ENE 5.8 mph - N/A   Partly Cloudy
10:52 PM 54.0 °F 50.0 °F 86% 30.19 in 10.0 mi NE 4.6 mph - N/A   Partly Cloudy
11:52 PM 55.0 °F 51.1 °F 86% 30.19 in 10.0 mi North 5.8 mph - N/A   Clear